Location: ?
(35.6144°N, 139.6873°E)
Time: 12:07:31
(UTC+00:00)

ACS3 Solar Sail - Visible Passes

Search period start: 20 July 2024 00:00
Search period end: 30 July 2024 00:00
Orbit: 993 x 1023 km, 97.4° (Epoch: 19 July)

Date Brightness Start Highest point End Pass type
(mag) Time Alt. Az. Time Alt. Az. Time Alt. Az.
20 Jul 5.4 11:10:11 19° SE 11:14:07 40° ENE 11:19:53 10° N visible
20 Jul 6.4 12:55:32 20° SW 12:58:17 27° W 13:03:30 10° NW visible
21 Jul 4.8 11:45:01 29° SSE 11:48:23 79° ENE 11:54:38 10° N visible
21 Jul 7.1 13:30:28 10° WSW 13:33:05 13° W 13:35:44 10° WNW visible
22 Jul 6.2 10:34:40 10° ESE 10:39:11 22° ENE 10:43:44 10° NNE visible
22 Jul 5.4 12:19:50 29° SSW 12:22:49 53° W 12:28:54 10° NNW visible
23 Jul 5.4 11:09:19 19° SE 11:13:15 42° ENE 11:19:03 10° N visible
23 Jul 6.4 12:54:40 19° SW 12:57:26 26° W 13:02:34 10° NW visible
24 Jul 4.8 11:44:09 29° SSE 11:47:30 82° ENE 11:53:46 10° N visible
24 Jul 7.1 13:29:51 10° WSW 13:32:15 12° W 13:34:38 10° WNW visible
25 Jul 6.2 10:33:40 10° ESE 10:38:17 22° ENE 10:42:56 10° NNE visible
25 Jul 5.4 12:18:59 29° SSW 12:21:57 51° W 12:28:02 10° NNW visible
26 Jul 5.3 11:08:28 20° SE 11:12:22 43° ENE 11:18:13 10° N visible
26 Jul 6.5 12:53:49 19° SW 12:56:34 26° W 13:01:39 10° NW visible
27 Jul 4.8 11:43:18 30° SSE 11:46:37 84° ENE 11:52:54 10° N visible
27 Jul 7.2 13:29:17 10° WSW 13:31:23 12° W 13:33:31 10° WNW visible
28 Jul 6.1 10:32:48 10° ESE 10:37:24 23° ENE 10:42:08 10° NNE visible
28 Jul 5.5 12:18:08 29° SSW 12:21:05 50° W 12:27:09 10° NNW visible
29 Jul 5.3 11:07:38 21° SE 11:11:29 45° ENE 11:17:22 10° N visible
29 Jul 6.5 12:52:59 18° SW 12:55:43 25° W 13:00:43 10° NW visible
